CW3306 Weather Reports


Display with metric or nautical units.
time (UTC)temp
F
wind
direction
speed
MPH
gust
MPH
rain 1hr
in
rain 24hr
in
rain mn
in
humidity
%
barometer
mb
20260906224845 81 5 1.0 2.0 0.00 0.02 0.02 78 1013.7
20260906224319 82 105 1.0 2.0 0.00 0.02 0.02 76 1013.7
20260906223815 82 162 0.0 3.0 0.00 0.02 0.02 77 1013.6
20260906223331 82 162 0.0 3.0 0.00 0.02 0.02 76 1013.5
20260906222827 82 288 0.0 2.0 0.00 0.02 0.02 75 1013.5
20260906222343 82 310 0.0 1.0 0.00 0.02 0.02 74 1013.3
20260906221818 82 87 0.0 3.0 0.00 0.02 0.02 75 1013.3
20260906221313 82 346 1.0 3.0 0.00 0.02 0.02 75 1013.2
20260906220813 83 204 1.0 3.0 0.00 0.02 0.02 75 1013.2
20260906220329 83 211 1.0 2.0 0.00 0.02 0.02 78 1013.2
20260906215825 83 360 1.0 2.0 0.00 0.02 0.02 76 1013.1
20260906215321 84 214 0.0 3.0 0.00 0.02 0.02 72 1013.2
20260906214816 84 266 1.0 3.0 0.00 0.02 0.02 75 1013.2
20260906214312 85 127 1.0 2.0 0.00 0.02 0.02 74 1013.2
20260906213829 85 248 0.0 5.0 0.00 0.02 0.02 73 1013.3
20260906213325 85 255 2.0 5.0 0.00 0.02 0.02 67 1013.3
20260906212825 85 315 0.0 3.0 0.00 0.02 0.02 71 1013.3
20260906212343 86 236 1.0 2.0 0.00 0.02 0.02 69 1013.3
20260906211818 86 154 0.0 4.0 0.00 0.02 0.02 69 1013.2
20260906211314 86 319 1.0 4.0 0.00 0.02 0.02 69 1013.2
20260906210830 87 340 1.0 3.0 0.00 0.02 0.02 68 1013.2
20260906210347 87 300 1.0 3.0 0.00 0.02 0.02 68 1013.1
20260906205822 87 292 1.0 3.0 0.00 0.02 0.02 71 1013.1
20260906205318 87 175 1.0 3.0 0.00 0.02 0.02 68 1013.1
20260906204839 87 160 1.0 3.0 0.00 0.02 0.02 67 1013.1
20260906204313 87 247 1.0 3.0 0.00 0.02 0.02 66 1013.2
20260906203829 87 329 1.0 3.0 0.00 0.02 0.02 69 1013.2
20260906203326 87 261 1.0 3.0 0.00 0.02 0.02 72 1013.2
20260906202822 87 224 1.0 2.0 0.00 0.02 0.02 66 1013.2
20260906202338 87 81 1.0 3.0 0.00 0.02 0.02 69 1013.2
20260906201813 87 273 1.0 2.0 0.00 0.02 0.02 68 1013.3
20260906201331 88 248 1.0 4.0 0.00 0.02 0.02 65 1013.3
20260906200831 88 355 2.0 4.0 0.00 0.02 0.02 66 1013.4
20260906200326 89 186 1.0 3.0 0.00 0.02 0.02 62 1013.5
20260906195822 88 65 1.0 2.0 0.00 0.02 0.02 63 1013.5
20260906195339 88 236 1.0 2.0 0.00 0.02 0.02 68 1013.5
20260906194834 88 5 1.0 4.0 0.00 0.02 0.02 67 1013.6
20260906194329 88 274 1.0 4.0 0.00 0.02 0.02 66 1013.6
20260906193825 88 33 2.0 4.0 0.00 0.02 0.02 68 1013.6
20260906193322 87 188 0.0 3.0 0.00 0.02 0.02 69 1013.6
20260906192817 87 348 1.0 3.0 0.00 0.02 0.02 69 1013.6
20260906192338 87 126 0.0 2.0 0.00 0.02 0.02 69 1013.6
20260906191853 87 65 1.0 2.0 0.00 0.02 0.02 71 1013.7
20260906191329 87 34 1.0 2.0 0.00 0.02 0.02 73 1013.7
20260906190825 87 76 1.0 3.0 0.00 0.02 0.02 72 1013.9
20260906190321 86 304 1.0 3.0 0.00 0.02 0.02 73 1014.0
20260906185817 86 206 1.0 4.0 0.00 0.02 0.02 75 1014.1
20260906185314 85 16 1.0 4.0 0.00 0.02 0.02 76 1014.3
20260906184830 85 209 1.0 4.0 0.00 0.02 0.02 76 1014.3
20260906184330 84 14 0.0 4.0 0.00 0.02 0.02 76 1014.4
20260906183846 85 232 0.0 2.0 0.00 0.02 0.02 77 1014.4
20260906183341 85 301 0.0 1.0 0.00 0.02 0.02 76 1014.4
20260906182816 84 225 0.0 0.0 0.00 0.02 0.02 77 1014.4
20260906182312 85 325 0.0 2.0 0.00 0.02 0.02 75 1014.6
20260906181827 85 325 0.0 3.0 0.00 0.02 0.02 74 1014.7
20260906181323 86 261 1.0 3.0 0.00 0.02 0.02 71 1014.7
20260906180818 86 288 1.0 3.0 0.00 0.02 0.02 71 1014.7
20260906180314 86 336 1.0 7.0 0.00 0.02 0.02 70 1014.7
20260906175850 86 121 0.0 2.0 0.00 0.02 0.02 73 1014.7
20260906175329 86 9 0.0 2.0 0.00 0.02 0.02 70 1014.8
20260906174826 87 73 0.0 4.0 0.00 0.02 0.02 73 1014.8
20260906174323 88 338 1.0 4.0 0.00 0.02 0.02 71 1014.9
20260906173818 88 111 1.0 3.0 0.00 0.02 0.02 66 1015.0
20260906173315 87 355 1.0 4.0 0.00 0.02 0.02 70 1015.0
20260906172831 87 85 1.0 4.0 0.00 0.02 0.02 71 1015.1
20260906172327 87 305 1.0 5.0 0.00 0.02 0.02 69 1015.1
20260906171827 87 319 1.0 5.0 0.00 0.02 0.02 67 1015.2
20260906171324 86 177 2.0 5.0 0.00 0.02 0.02 71 1015.2
20260906170819 86 283 2.0 4.0 0.00 0.02 0.02 72 1015.3
20260906170315 86 320 2.0 3.0 0.00 0.02 0.02 68 1015.4
20260906165832 86 99 1.0 3.0 0.00 0.02 0.02 68 1015.3
20260906165326 86 229 1.0 3.0 0.00 0.02 0.02 73 1015.3
20260906164822 86 189 1.0 4.0 0.00 0.02 0.02 73 1015.3
20260906164339 85 192 2.0 5.0 0.00 0.02 0.02 73 1015.3
20260906163818 85 190 1.0 5.0 0.00 0.02 0.02 75 1015.4
20260906163314 85 148 1.0 2.0 0.00 0.02 0.02 77 1015.4
20260906162829 85 107 0.0 3.0 0.00 0.02 0.02 72 1015.4
20260906162325 85 184 1.0 3.0 0.00 0.02 0.02 77 1015.5
20260906161821 85 337 0.0 3.0 0.00 0.02 0.02 73 1015.5
20260906161317 84 182 1.0 4.0 0.00 0.02 0.02 73 1015.6
20260906160834 84 34 0.0 3.0 0.00 0.02 0.02 78 1015.5
20260906160330 83 88 1.0 3.0 0.00 0.02 0.02 74 1015.6
20260906155825 83 182 0.0 2.0 0.00 0.02 0.02 78 1015.6
20260906155326 82 298 1.0 2.0 0.00 0.02 0.02 80 1015.6
20260906154822 82 167 0.0 3.0 0.00 0.02 0.02 82 1015.5
20260906154318 82 309 1.0 3.0 0.00 0.02 0.02 80 1015.6
20260906153814 82 240 1.0 4.0 0.00 0.02 0.02 82 1015.6
20260906153331 82 360 1.0 4.0 0.00 0.02 0.02 80 1015.8
20260906152826 82 241 1.0 3.0 0.00 0.02 0.02 83 1015.8
20260906152342 81 257 2.0 3.0 0.00 0.02 0.02 82 1015.6
20260906151816 81 321 0.0 3.0 0.00 0.02 0.02 86 1015.8
20260906151316 81 169 1.0 5.0 0.00 0.02 0.02 87 1015.8
20260906150813 80 5 1.0 5.0 0.00 0.02 0.02 82 1015.8
20260906150327 80 186 1.0 3.0 0.00 0.02 0.02 86 1015.8
20260906145823 80 279 1.0 2.0 0.00 0.02 0.02 87 1015.8
20260906145319 79 28 0.0 2.0 0.00 0.02 0.02 85 1015.8
20260906144815 79 340 1.0 2.0 0.00 0.02 0.02 89 1015.8
20260906144312 78 15 0.0 2.0 0.00 0.02 0.02 88 1015.8
20260906143812 78 127 0.0 2.0 0.00 0.02 0.02 88 1015.9
20260906143328 78 51 0.0 0.0 0.00 0.02 0.02 88 1015.8
20260906142824 77 78 0.0 0.0 0.00 0.02 0.02 88 1015.9
20260906142320 77 78 0.0 0.0 0.00 0.02 0.02 91 1016.0
20260906141836 76 344 0.0 0.0 0.00 0.02 0.02 92 1016.0
20260906141331 76 191 0.0 0.0 0.00 0.02 0.02 92 1015.9
20260906140827 75 191 0.0 0.0 0.00 0.02 0.02 92 1015.8
20260906140324 75 217 0.0 0.0 0.00 0.02 0.02 93 1015.9
20260906135825 75 360 0.0 0.0 0.00 0.02 0.02 94 1015.9
20260906135320 74 355 0.0 0.0 0.00 0.02 0.02 96 1015.9
20260906134816 74 344 0.0 0.0 0.00 0.02 0.02 96 1015.8
20260906134311 73 322 0.0 0.0 0.00 0.02 0.02 97 1015.9
20260906133848 73 322 0.0 0.0 0.00 0.02 0.02 98 1015.8
20260906133323 72 322 0.0 0.0 0.00 0.02 0.02 98 1015.8
20260906132839 72 322 0.0 0.0 0.00 0.02 0.02 98 1015.8
20260906132314 72 322 0.0 0.0 0.00 0.02 0.02 98 1015.8
20260906131830 71 326 0.0 0.0 0.00 0.02 0.02 98 1015.8
20260906131331 71 326 0.0 0.0 0.00 0.02 0.02 98 1015.8
20260906130827 70 326 0.0 0.0 0.00 0.02 0.02 98 1015.8
20260906130323 70 326 0.0 0.0 0.00 0.02 0.02 98 1015.9
20260906125819 70 326 0.0 0.0 0.00 0.02 0.02 98 1015.8
20260906125316 70 326 0.0 0.0 0.00 0.02 0.02 98 1015.9
20260906124811 69 326 0.0 0.0 0.00 0.02 0.02 98 1015.8
20260906124328 69 326 0.0 0.0 0.00 0.02 0.02 98 1015.8
20260906123828 69 326 0.0 0.0 0.00 0.02 0.02 98 1015.8
20260906123325 69 326 0.0 0.0 0.00 0.02 0.02 98 1015.8
20260906122820 69 326 0.0 0.0 0.00 0.02 0.02 98 1015.7
20260906122317 69 326 0.0 0.0 0.00 0.02 0.02 97 1015.7
20260906121813 69 326 0.0 0.0 0.00 0.02 0.02 97 1015.5
20260906121328 69 326 0.0 0.0 0.00 0.02 0.02 97 1015.5
20260906120824 69 326 0.0 0.0 0.00 0.02 0.02 97 1015.5
20260906120325 69 326 0.0 0.0 0.00 0.02 0.02 97 1015.4
20260906115820 69 326 0.0 0.0 0.00 0.02 0.02 97 1015.3
20260906115337 69 326 0.0 0.0 0.00 0.02 0.02 97 1015.2
20260906114812 69 326 0.0 0.0 0.00 0.02 0.02 97 1015.2
20260906114348 69 326 0.0 0.0 0.00 0.02 0.02 97 1015.3
20260906113844 69 326 0.0 0.0 0.00 0.02 0.02 97 1015.2
20260906113317 69 326 0.0 0.0 0.00 0.02 0.02 97 1015.1
20260906112813 69 326 0.0 0.0 0.00 0.02 0.02 97 1014.9
20260906112331 69 326 0.0 0.0 0.00 0.02 0.02 97 1015.0
20260906111831 69 326 0.0 0.0 0.00 0.02 0.02 97 1014.9
20260906111327 69 326 0.0 0.0 0.00 0.02 0.02 97 1014.8
20260906110823 69 326 0.0 0.0 0.00 0.02 0.02 97 1014.8
20260906110320 69 326 0.0 0.0 0.00 0.02 0.02 97 1014.7
20260906105816 69 326 0.0 0.0 0.00 0.02 0.02 97 1014.8
20260906105333 69 326 0.0 0.0 0.00 0.02 0.02 97 1014.8
20260906104828 69 326 0.0 0.0 0.00 0.02 0.02 97 1014.6
20260906104344 69 326 0.0 0.0 0.00 0.02 0.02 97 1014.7
20260906103839 69 326 0.0 0.0 0.00 0.02 0.02 97 1014.5
20260906103319 69 326 0.0 0.0 0.00 0.02 0.02 97 1014.5
20260906102814 69 326 0.0 0.0 0.00 0.02 0.02 97 1014.4
20260906102331 69 326 0.0 0.0 0.00 0.02 0.02 97 1014.5
20260906101827 70 326 0.0 0.0 0.00 0.02 0.02 97 1014.4
20260906101324 69 326 0.0 0.0 0.00 0.02 0.02 97 1014.4
20260906100819 70 326 0.0 0.0 0.00 0.02 0.02 97 1014.4
20260906100337 70 326 0.0 0.0 0.00 0.02 0.02 97 1014.5
20260906095816 70 326 0.0 0.0 0.00 0.02 0.02 97 1014.4
20260906095312 70 326 0.0 0.0 0.00 0.02 0.02 97 1014.4
20260906094828 70 326 0.0 0.0 0.00 0.02 0.02 97 1014.4
20260906094325 70 326 0.0 0.0 0.00 0.02 0.02 97 1014.4
20260906093841 70 326 0.0 0.0 0.00 0.02 0.02 97 1014.4
20260906093316 70 326 0.0 0.0 0.00 0.02 0.02 97 1014.5
20260906092812 70 326 0.0 0.0 0.00 0.02 0.02 97 1014.4
20260906092347 70 326 0.0 0.0 0.00 0.02 0.02 97 1014.4
20260906091822 70 326 0.0 0.0 0.00 0.02 0.02 97 1014.5
20260906091343 70 326 0.0 0.0 0.00 0.02 0.02 97 1014.5
20260906090818 71 326 0.0 0.0 0.00 0.02 0.02 97 1014.4
20260906090315 71 326 0.0 0.0 0.00 0.02 0.02 97 1014.4
20260906085831 71 326 0.0 0.0 0.00 0.02 0.02 97 1014.4
20260906085328 71 326 0.0 0.0 0.00 0.02 0.02 97 1014.4
20260906084824 71 326 0.0 0.0 0.00 0.02 0.02 97 1014.5
20260906084319 71 326 0.0 0.0 0.00 0.02 0.02 97 1014.3
20260906083814 71 326 0.0 0.0 0.00 0.02 0.02 97 1014.3
20260906083329 71 326 0.0 0.0 0.00 0.02 0.02 97 1014.3
20260906082827 71 326 0.0 0.0 0.00 0.02 0.02 97 1014.4
20260906082323 71 326 0.0 0.0 0.00 0.02 0.02 97 1014.4
20260906081839 71 326 0.0 0.0 0.00 0.02 0.02 97 1014.4
20260906081314 72 326 0.0 0.0 0.00 0.02 0.02 97 1014.3
20260906080850 72 326 0.0 0.0 0.00 0.02 0.02 97 1014.2
20260906080325 72 326 0.0 0.0 0.00 0.02 0.02 97 1014.4
20260906075821 72 326 0.0 0.0 0.00 0.02 0.02 97 1014.5
20260906075318 72 326 0.0 0.0 0.00 0.02 0.02 97 1014.6
20260906074837 72 288 0.0 1.0 0.00 0.02 0.02 97 1014.8
20260906074312 72 40 0.0 1.0 0.00 0.02 0.02 97 1014.9
20260906073828 72 138 0.0 0.0 0.00 0.02 0.02 97 1014.8
20260906073324 72 160 0.0 0.0 0.00 0.02 0.02 97 1014.9
20260906072840 72 160 0.0 0.0 0.00 0.02 0.02 97 1014.9
20260906072316 72 123 0.0 0.0 0.00 0.02 0.02 96 1014.7
20260906071851 72 123 0.0 2.0 0.00 0.02 0.02 96 1014.6
20260906071326 72 123 0.0 2.0 0.00 0.02 0.02 96 1014.4
20260906070843 72 135 0.0 0.0 0.00 0.02 0.02 96 1014.4
20260906070321 72 135 0.0 0.0 0.00 0.02 0.02 96 1014.5
20260906065818 72 135 0.0 0.0 0.01 0.02 0.02 96 1014.6
20260906065313 72 135 0.0 0.0 0.01 0.02 0.02 96 1014.6
20260906064828 72 135 0.0 0.0 0.01 0.02 0.02 96 1014.7
20260906064326 72 135 0.0 0.0 0.02 0.02 0.02 96 1014.7
20260906063822 72 135 0.0 1.0 0.02 0.02 0.02 96 1014.8
20260906063318 73 135 0.0 1.0 0.02 0.02 0.02 96 1014.8
20260906062814 73 135 1.0 1.0 0.02 0.02 0.02 96 1014.9
20260906062315 73 135 0.0 1.0 0.02 0.02 0.02 96 1014.8
20260906061850 73 135 0.0 1.0 0.02 0.02 0.02 96 1014.9
20260906061325 73 135 0.0 1.0 0.02 0.02 0.02 96 1015.1
20260906060822 73 53 0.0 2.0 0.02 0.02 0.02 96 1015.2
20260906060318 73 121 0.0 3.0 0.02 0.02 0.02 96 1015.1
20260906055814 73 30 0.0 3.0 0.01 0.01 0.01 96 1015.1
20260906055311 73 217 1.0 2.0 0.01 0.01 0.01 96 1015.2
20260906054812 73 161 0.0 1.0 0.00 0.00 0.00 96 1015.0
20260906054327 73 161 0.0 1.0 0.00 0.00 0.00 96 1014.6
20260906053824 73 161 0.0 1.0 0.00 0.00 0.00 96 1014.6
20260906053321 72 162 0.0 2.0 0.00 0.00 0.00 96 1014.8
20260906052817 72 149 0.0 4.0 0.00 0.00 0.00 96 1015.0
20260906052333 72 227 0.0 8.0 0.00 0.00 0.00 96 1015.3
20260906051828 72 233 2.0 8.0 0.00 0.00 0.00 96 1015.5
20260906051344 72 5 0.0 0.0 0.00 0.00 0.00 96 1015.2
20260906050819 72 5 0.0 0.0 0.00 0.00 0.00 96 1015.2
20260906050321 72 5 0.0 0.0 0.00 0.00 0.00 96 1015.3
20260906045817 72 5 0.0 0.0 0.00 0.00 0.00 96 1015.3
20260906045313 72 5 0.0 0.0 0.00 0.00 0.00 96 1015.2
20260906044829 72 5 0.0 0.0 0.00 0.00 0.00 96 1015.1
20260906044326 72 5 0.0 0.0 0.00 0.00 0.00 96 1015.0
20260906043822 72 5 0.0 0.0 0.00 0.00 0.00 96 1015.1
20260906043318 72 5 0.0 0.0 0.00 0.00 0.00 96 1015.1
20260906042818 72 5 0.0 0.0 0.00 0.00 0.00 96 1015.2
20260906042315 72 5 0.0 0.0 0.00 0.00 0.00 96 1015.3
20260906041811 72 5 0.0 0.0 0.00 0.00 0.00 96 1015.3
20260906041347 72 5 0.0 0.0 0.00 0.00 0.00 96 1015.2
20260906040822 72 5 0.0 0.0 0.00 0.00 0.00 96 1015.3
20260906040340 72 5 0.0 0.0 0.00 0.00 0.00 96 1015.4
20260906035814 72 5 0.0 0.0 0.00 0.00 0.00 96 1015.5
20260906035330 72 5 0.0 0.0 0.00 0.00 0.00 96 1015.5
20260906034830 72 5 0.0 0.0 0.00 0.00 0.00 96 1015.6
20260906034325 72 5 0.0 0.0 0.00 0.00 0.00 96 1015.7
20260906033820 73 5 0.0 0.0 0.00 0.00 0.00 96 1015.8
20260906033317 73 5 0.0 0.0 0.00 0.00 0.00 96 1015.7
20260906032853 73 5 0.0 0.0 0.00 0.00 0.00 96 1015.4
20260906032324 73 5 0.0 0.0 0.00 0.00 0.00 95 1015.4
20260906031821 73 5 0.0 0.0 0.00 0.00 0.00 95 1015.5
20260906031317 73 5 0.0 0.0 0.00 0.00 0.00 95 1015.6
20260906030813 73 5 0.0 0.0 0.00 0.00 0.00 95 1015.6
20260906030313 73 5 0.0 0.0 0.00 0.00 0.00 95 1015.5
20260906025828 73 5 0.0 0.0 0.00 0.00 0.00 95 1015.5
20260906025324 73 5 0.0 0.0 0.00 0.00 0.00 95 1015.6
20260906024841 73 5 0.0 0.0 0.00 0.00 0.00 95 1015.5
20260906024316 73 5 0.0 0.0 0.00 0.00 0.00 95 1015.5
20260906023832 73 5 0.0 0.0 0.00 0.00 0.00 95 1015.4
20260906023327 73 5 0.0 0.0 0.00 0.00 0.00 95 1015.2
20260906022823 74 5 0.0 0.0 0.00 0.00 0.00 95 1015.2
20260906022324 74 5 0.0 0.0 0.00 0.00 0.00 95 1015.1
20260906021820 74 5 0.0 0.0 0.00 0.00 0.00 94 1015.0
20260906021337 74 5 0.0 0.0 0.00 0.00 0.00 94 1014.8
20260906020813 74 5 0.0 0.0 0.00 0.00 0.00 95 1014.8
20260906020330 74 5 0.0 0.0 0.00 0.00 0.00 95 1014.7
20260906015846 74 284 0.0 0.0 0.00 0.00 0.00 94 1014.7
20260906015321 74 284 0.0 0.0 0.00 0.00 0.00 95 1014.6
20260906014837 74 284 0.0 0.0 0.00 0.00 0.00 95 1014.6
20260906014312 74 284 0.0 0.0 0.00 0.00 0.00 94 1014.5
20260906013830 75 284 0.0 0.0 0.00 0.00 0.00 94 1014.5
20260906013327 75 284 0.0 0.0 0.00 0.00 0.00 94 1014.4
20260906012823 75 284 0.0 0.0 0.00 0.00 0.00 94 1014.3
20260906012319 75 284 0.0 0.0 0.00 0.00 0.00 94 1014.4
20260906011815 75 284 0.0 0.0 0.00 0.00 0.00 94 1014.3
20260906011311 75 284 0.0 0.0 0.00 0.00 0.00 94 1014.4
20260906010828 76 284 0.0 0.0 0.00 0.00 0.00 93 1014.4
20260906010329 76 284 0.0 0.0 0.00 0.00 0.00 93 1014.6
20260906005825 76 284 0.0 0.0 0.00 0.00 0.00 93 1014.6
20260906005322 76 284 0.0 0.0 0.00 0.00 0.00 93 1014.7
20260906004818 76 284 0.0 0.0 0.00 0.00 0.00 93 1014.7
20260906004334 77 284 0.0 0.0 0.00 0.00 0.00 93 1014.6
20260906003829 77 284 0.0 0.0 0.00 0.00 0.00 93 1014.7
20260906003326 77 284 0.0 0.0 0.00 0.00 0.00 93 1014.6
20260906002822 77 284 0.0 0.0 0.00 0.00 0.00 92 1014.6
20260906002322 77 284 0.0 0.0 0.00 0.00 0.00 92 1014.5
20260906001838 77 284 0.0 0.0 0.00 0.00 0.00 91 1014.5
20260906001313 78 284 0.0 0.0 0.00 0.00 0.00 91 1014.6
20260906000829 78 284 0.0 0.0 0.00 0.00 0.00 90 1014.7
20260906000326 78 284 0.0 0.0 0.00 0.00 0.00 89 1014.8
20260905235822 78 284 0.0 0.0 0.00 0.00 0.00 89 1014.7
20260905235318 79 284 0.0 0.0 0.00 0.00 0.00 88 1014.7
20260905234818 79 284 0.0 0.0 0.00 0.00 0.00 88 1014.6
20260905234334 79 284 0.0 0.0 0.00 0.00 0.00 88 1014.6
20260905233829 79 284 0.0 0.0 0.00 0.00 0.00 87 1014.5
20260905233325 79 284 0.0 0.0 0.00 0.00 0.00 87 1014.5
20260905232841 80 284 0.0 0.0 0.00 0.00 0.00 87 1014.6
20260905232316 80 198 0.0 4.0 0.00 0.00 0.00 85 1014.4
20260905231812 79 225 0.0 4.0 0.00 0.00 0.00 86 1014.4
20260905231329 79 167 1.0 1.0 0.00 0.00 0.00 90 1014.4
20260905230825 79 167 0.0 1.0 0.00 0.00 0.00 89 1014.4
20260905230325 79 167 0.0 1.0 0.00 0.00 0.00 88 1014.4
20260905225821 79 167 0.0 1.0 0.00 0.00 0.00 89 1014.3
20260905225318 79 167 0.0 1.0 0.00 0.00 0.00 88 1014.3